W7YP Weather Reports


Display with metric or nautical units.
time (UTC)temp
F
wind
direction
speed
MPH
gust
MPH
rain 1hr
in
rain 24hr
in
rain mn
in
humidity
%
barometer
mb
20191014202615 48 178 3.0 9.0 0.00 0.03 0.00 58 1017.7
20191014202116 48 190 1.0 6.0 0.00 0.03 0.00 61 1017.7
20191014201551 48 60 1.0 5.0 0.00 0.03 0.00 60 1017.5
20191014201047 48 173 0.0 2.0 0.00 0.03 0.00 61 1017.5
20191014200533 48 173 0.0 2.0 0.00 0.03 0.00 60 1017.6
20191014200003 48 173 0.0 1.0 0.00 0.03 0.00 61 1017.6
20191014195500 48 173 0.0 1.0 0.00 0.03 0.00 61 1017.6
20191014194949 48 173 0.0 2.0 0.00 0.03 0.00 60 1017.6
20191014194450 48 171 1.0 5.0 0.00 0.03 0.00 60 1017.6
20191014193926 48 170 1.0 7.0 0.00 0.03 0.00 58 1017.6
20191014193430 48 285 1.0 7.0 0.00 0.03 0.00 59 1017.7
20191014192908 49 315 0.0 5.0 0.00 0.03 0.00 61 1017.8
20191014192344 49 257 0.0 4.0 0.00 0.03 0.00 62 1017.7
20191014191843 49 257 2.0 8.0 0.00 0.03 0.00 60 1017.8
20191014191332 49 129 2.0 8.0 0.00 0.03 0.00 59 1017.8
20191014190826 49 219 2.0 7.0 0.00 0.03 0.00 59 1017.8
20191014190327 49 126 2.0 7.0 0.00 0.03 0.00 59 1017.8
20191014185830 49 330 2.0 8.0 0.00 0.03 0.00 59 1017.7
20191014185320 49 148 3.0 8.0 0.00 0.03 0.00 63 1017.6
20191014184821 49 271 3.0 8.0 0.00 0.03 0.00 62 1017.6
20191014184317 49 280 2.0 7.0 0.00 0.03 0.00 61 1017.6
20191014183820 49 183 1.0 5.0 0.00 0.03 0.00 61 1017.5
20191014183311 48 192 2.0 6.0 0.00 0.03 0.00 66 1017.4
20191014182811 48 290 2.0 6.0 0.00 0.03 0.00 62 1017.3
20191014182245 48 301 1.0 6.0 0.00 0.03 0.00 63 1017.4
20191014181743 48 32 1.0 5.0 0.00 0.03 0.00 63 1017.3
20191014181243 48 96 2.0 5.0 0.00 0.03 0.00 62 1017.2
20191014180734 48 288 2.0 6.0 0.00 0.03 0.00 62 1017.2
20191014180232 47 80 2.0 8.0 0.00 0.03 0.00 64 1016.8
20191014175733 47 167 1.0 8.0 0.00 0.03 0.00 64 1016.9
20191014175231 47 325 1.0 6.0 0.00 0.03 0.00 63 1016.8
20191014174733 47 288 1.0 6.0 0.00 0.03 0.00 64 1016.7
20191014174204 47 102 1.0 6.0 0.00 0.03 0.00 65 1016.6
20191014173640 47 169 2.0 6.0 0.00 0.03 0.00 64 1016.6
20191014173123 47 185 1.0 6.0 0.00 0.03 0.00 66 1016.7
20191014172614 47 284 1.0 7.0 0.00 0.03 0.00 69 1016.6
20191014172054 46 311 2.0 7.0 0.00 0.03 0.00 69 1016.5
20191014171542 46 293 2.0 9.0 0.00 0.03 0.00 70 1016.4
20191014171033 46 293 2.0 8.0 0.00 0.03 0.00 71 1016.3
20191014170514 46 233 2.0 8.0 0.00 0.03 0.00 70 1016.0
20191014170009 45 288 3.0 9.0 0.00 0.03 0.00 71 1015.9
20191014165451 45 307 3.0 9.0 0.00 0.03 0.00 71 1015.8
20191014164929 44 281 3.0 8.0 0.00 0.03 0.00 72 1015.6
20191014164429 44 227 2.0 8.0 0.00 0.03 0.00 74 1015.4
20191014163920 44 288 3.0 10.0 0.00 0.03 0.00 74 1015.3
20191014163413 43 299 4.0 12.0 0.00 0.03 0.00 74 1015.0
20191014162911 43 336 4.0 10.0 0.00 0.03 0.00 75 1015.0
20191014162402 43 298 5.0 14.0 0.00 0.03 0.00 76 1014.9
20191014161837 43 300 4.0 14.0 0.00 0.03 0.00 77 1014.8
20191014161321 42 340 4.0 11.0 0.00 0.03 0.00 77 1014.7
20191014160804 42 284 4.0 11.0 0.00 0.03 0.00 77 1014.6
20191014160304 42 290 4.0 9.0 0.00 0.04 0.00 78 1014.5
20191014155738 42 308 4.0 8.0 0.00 0.04 0.00 79 1014.4
20191014155238 42 5 3.0 8.0 0.00 0.04 0.00 80 1014.5
20191014154732 41 313 3.0 10.0 0.00 0.04 0.00 80 1014.3
20191014154217 41 274 4.0 10.0 0.00 0.04 0.00 81 1014.3
20191014153708 41 321 3.0 10.0 0.00 0.04 0.00 82 1014.1
20191014153145 40 30 2.0 7.0 0.00 0.04 0.00 83 1014.0
20191014152619 40 296 2.0 7.0 0.00 0.04 0.00 84 1013.9
20191014152051 40 227 1.0 5.0 0.00 0.04 0.00 85 1013.9
20191014151541 39 240 1.0 6.0 0.00 0.04 0.00 86 1013.8
20191014151026 39 284 1.0 5.0 0.00 0.04 0.00 87 1013.7
20191014150526 39 223 2.0 11.0 0.00 0.04 0.00 87 1013.5
20191014150028 38 273 3.0 11.0 0.00 0.04 0.00 88 1013.4
20191014145502 38 321 1.0 6.0 0.00 0.04 0.00 88 1013.0
20191014144938 38 302 2.0 7.0 0.00 0.04 0.00 88 1013.0
20191014144424 38 321 1.0 7.0 0.00 0.04 0.00 87 1012.9
20191014143924 38 315 1.0 7.0 0.00 0.04 0.00 86 1012.9
20191014143425 38 284 1.0 7.0 0.00 0.04 0.00 86 1012.8
20191014142918 38 216 1.0 6.0 0.00 0.04 0.00 85 1012.8
20191014142420 38 280 0.0 5.0 0.00 0.04 0.00 85 1012.8
20191014141846 39 280 1.0 5.0 0.00 0.04 0.00 84 1012.8
20191014141345 39 276 1.0 4.0 0.00 0.04 0.00 84 1012.9
20191014140845 39 265 1.0 4.0 0.00 0.04 0.00 84 1012.9
20191014140326 40 321 1.0 7.0 0.00 0.04 0.00 84 1012.9
20191014135824 40 222 1.0 7.0 0.00 0.04 0.00 85 1013.0
20191014135313 40 210 1.0 5.0 0.00 0.04 0.00 84 1012.9
20191014134815 40 319 1.0 7.0 0.00 0.04 0.00 84 1012.8
20191014134303 40 319 1.0 7.0 0.00 0.04 0.00 84 1012.8
20191014133804 40 142 1.0 5.0 0.00 0.04 0.00 84 1012.8
20191014133240 40 284 2.0 9.0 0.00 0.04 0.00 84 1012.8
20191014132739 40 199 2.0 7.0 0.00 0.04 0.00 84 1012.8
20191014132206 40 190 2.0 7.0 0.00 0.04 0.00 85 1012.7
20191014131706 40 169 2.0 7.0 0.00 0.04 0.00 85 1012.7
20191014131204 40 294 2.0 7.0 0.00 0.04 0.00 85 1012.7
20191014130641 40 237 4.0 9.0 0.00 0.04 0.00 85 1012.6
20191014130121 40 304 3.0 9.0 0.00 0.04 0.00 86 1012.6
20191014125619 40 275 3.0 9.0 0.00 0.04 0.00 86 1012.5
20191014125123 40 136 3.0 9.0 0.00 0.04 0.00 86 1012.5
20191014124614 40 187 2.0 6.0 0.00 0.04 0.00 86 1012.5
20191014124111 40 184 2.0 8.0 0.00 0.04 0.00 86 1012.4
20191014123549 40 283 2.0 8.0 0.00 0.04 0.00 86 1012.2
20191014123018 40 309 2.0 8.0 0.00 0.04 0.00 86 1012.4
20191014122450 40 317 2.0 8.0 0.00 0.04 0.00 86 1012.2
20191014121945 41 292 3.0 8.0 0.00 0.04 0.00 86 1012.1
20191014121432 41 103 2.0 7.0 0.00 0.04 0.00 86 1012.2
20191014120930 41 327 2.0 6.0 0.00 0.04 0.00 86 1012.2
20191014120423 41 161 2.0 6.0 0.00 0.04 0.00 86 1012.1
20191014115855 41 249 2.0 6.0 0.00 0.04 0.00 86 1012.0
20191014115355 41 321 2.0 7.0 0.00 0.04 0.00 86 1011.9
20191014114858 41 342 2.0 7.0 0.00 0.04 0.00 86 1011.9
20191014114355 41 329 2.0 7.0 0.00 0.04 0.00 87 1012.0
20191014113854 41 188 3.0 7.0 0.00 0.04 0.00 87 1011.7
20191014113353 41 269 3.0 10.0 0.00 0.04 0.00 86 1011.5
20191014112820 40 163 4.0 13.0 0.00 0.04 0.00 87 1011.6
20191014112314 40 145 3.0 13.0 0.00 0.04 0.00 87 1011.6
20191014111748 40 333 2.0 8.0 0.00 0.04 0.00 88 1011.6
20191014111230 40 169 2.0 11.0 0.00 0.04 0.00 88 1011.6
20191014110727 40 264 3.0 11.0 0.00 0.04 0.00 88 1011.6
20191014110229 40 286 3.0 7.0 0.00 0.04 0.00 88 1011.6
20191014105707 40 272 2.0 6.0 0.00 0.04 0.00 89 1011.5
20191014105150 40 294 2.0 7.0 0.00 0.04 0.00 90 1011.5
20191014104630 40 182 2.0 9.0 0.00 0.04 0.00 90 1011.2
20191014104107 40 270 2.0 9.0 0.00 0.04 0.00 90 1011.2
20191014103604 39 292 2.0 6.0 0.00 0.04 0.00 91 1011.0
20191014103048 39 155 1.0 5.0 0.00 0.04 0.00 91 1011.2
20191014102530 39 247 0.0 1.0 0.00 0.04 0.00 91 1011.1
20191014102017 39 233 0.0 0.0 0.00 0.04 0.00 91 1011.0
20191014101458 39 233 0.0 0.0 0.00 0.04 0.00 91 1010.9
20191014100939 39 233 1.0 4.0 0.00 0.04 0.00 91 1010.9
20191014100422 39 233 1.0 4.0 0.00 0.04 0.00 91 1010.9
20191014095900 40 271 0.0 3.0 0.00 0.04 0.00 92 1010.9
20191014095341 40 217 0.0 2.0 0.00 0.04 0.00 92 1010.9
20191014094809 40 215 0.0 2.0 0.00 0.04 0.00 92 1010.9
20191014094252 40 215 1.0 5.0 0.00 0.04 0.00 92 1010.9
20191014093742 40 215 1.0 8.0 0.00 0.04 0.00 92 1010.8
20191014093239 40 303 2.0 8.0 0.00 0.04 0.00 93 1010.7
20191014092740 39 313 3.0 8.0 0.00 0.04 0.00 93 1010.8
20191014092239 39 306 2.0 8.0 0.00 0.04 0.00 93 1010.7
20191014091749 39 311 1.0 5.0 0.00 0.04 0.00 94 1010.6
20191014091141 39 238 2.0 5.0 0.00 0.04 0.00 94 1010.5
20191014090641 39 232 1.0 5.0 0.00 0.04 0.00 94 1010.5
20191014090136 39 336 1.0 5.0 0.00 0.04 0.00 94 1010.7
20191014085608 39 192 0.0 2.0 0.00 0.04 0.00 94 1010.8
20191014085022 39 190 0.0 4.0 0.00 0.04 0.00 94 1010.7
20191014084450 39 190 0.0 4.0 0.00 0.04 0.00 94 1010.7
20191014083939 39 258 0.0 4.0 0.00 0.04 0.00 94 1010.7
20191014083442 39 257 0.0 4.0 0.00 0.04 0.00 94 1010.7
20191014082859 39 253 0.0 1.0 0.00 0.04 0.00 94 1010.8
20191014082402 39 195 0.0 0.0 0.00 0.04 0.00 94 1010.8
20191014081816 39 195 0.0 0.0 0.00 0.04 0.00 94 1010.7
20191014081229 39 194 0.0 2.0 0.00 0.04 0.00 94 1010.7
20191014080710 39 194 0.0 2.0 0.00 0.04 0.00 94 1010.8
20191014080210 39 194 1.0 8.0 0.00 0.04 0.00 94 1010.8
20191014075649 39 296 1.0 8.0 0.00 0.04 0.00 94 1010.8
20191014075148 39 219 1.0 8.0 0.00 0.04 0.00 94 1010.8
20191014074604 39 219 1.0 8.0 0.00 0.04 0.00 94 1010.7
20191014074041 39 330 1.0 5.0 0.00 0.04 0.00 94 1010.7
20191014073541 39 268 0.0 4.0 0.00 0.04 0.00 94 1010.7
20191014072957 39 298 0.0 2.0 0.00 0.04 0.00 94 1010.8
20191014072352 39 298 0.0 1.0 0.00 0.04 0.00 94 1010.8
20191014071838 39 298 0.0 2.0 0.00 0.04 0.00 95 1010.7
20191014071256 39 298 0.0 4.0 0.00 0.04 0.00 95 1010.8
20191014070728 39 298 1.0 4.0 0.00 0.04 0.00 95 1010.7
20191014070224 39 298 2.0 6.0 0.00 0.04 0.00 95 1010.9
20191014065705 39 171 2.0 9.0 0.00 0.04 0.00 95 1010.9
20191014065212 39 291 1.0 4.0 0.00 0.04 0.00 95 1010.8
20191014064659 39 157 1.0 5.0 0.00 0.04 0.00 95 1010.9
20191014064201 38 313 1.0 5.0 0.00 0.04 0.00 95 1010.7
20191014063637 38 157 0.0 5.0 0.00 0.04 0.00 95 1010.5
20191014063106 38 318 2.0 5.0 0.00 0.04 0.00 95 1010.6
20191014062539 38 176 1.0 5.0 0.00 0.04 0.00 95 1010.6
20191014062038 37 181 0.0 5.0 0.00 0.04 0.00 95 1010.3
20191014061539 37 283 0.0 1.0 0.00 0.04 0.00 95 1010.3
20191014061005 37 283 0.0 2.0 0.00 0.04 0.00 95 1010.3
20191014060418 37 283 0.0 2.0 0.00 0.04 0.00 95 1010.3
20191014055855 37 283 0.0 2.0 0.00 0.04 0.04 95 1010.2
20191014055310 37 283 0.0 2.0 0.01 0.04 0.04 95 1010.1
20191014054753 37 283 0.0 0.0 0.01 0.04 0.04 95 1010.1
20191014054252 37 283 0.0 0.0 0.01 0.04 0.04 94 1010.1
20191014053714 37 283 0.0 0.0 0.01 0.04 0.04 94 1010.2
20191014053208 37 283 0.0 0.0 0.01 0.04 0.04 94 1010.3
20191014052657 37 283 0.0 0.0 0.01 0.04 0.04 94 1010.3
20191014052145 38 283 0.0 0.0 0.01 0.04 0.04 94 1010.5
20191014051642 38 283 0.0 1.0 0.01 0.04 0.04 94 1010.5
20191014051135 38 283 0.0 1.0 0.01 0.04 0.04 94 1010.6
20191014050605 38 283 0.0 1.0 0.01 0.04 0.04 94 1010.7
20191014050027 38 283 0.0 0.0 0.01 0.04 0.04 94 1010.8
20191014045445 38 283 0.0 5.0 0.01 0.04 0.04 94 1010.7
20191014044937 37 173 0.0 5.0 0.00 0.03 0.03 94 1010.7
20191014044440 37 301 0.0 1.0 0.00 0.03 0.03 94 1010.7
20191014043918 37 301 0.0 0.0 0.00 0.03 0.03 94 1010.7
20191014043351 37 301 0.0 2.0 0.01 0.03 0.03 94 1010.7
20191014042848 37 301 0.0 2.0 0.01 0.03 0.03 94 1010.5
20191014042342 37 301 0.0 2.0 0.01 0.03 0.03 93 1010.6
20191014041846 37 300 0.0 2.0 0.01 0.03 0.03 93 1010.6
20191014041340 37 301 0.0 0.0 0.01 0.03 0.03 93 1010.5
20191014040816 38 301 0.0 0.0 0.01 0.03 0.03 93 1010.6
20191014040312 38 301 0.0 0.0 0.01 0.03 0.03 93 1010.5
20191014035812 38 301 0.0 0.0 0.02 0.03 0.03 92 1010.7
20191014035252 38 301 0.0 0.0 0.02 0.03 0.03 92 1010.8
20191014034723 38 301 0.0 0.0 0.02 0.03 0.03 92 1010.9
20191014034204 38 301 0.0 0.0 0.02 0.03 0.03 92 1010.7
20191014033647 38 301 0.0 0.0 0.02 0.03 0.03 91 1010.9
20191014033110 38 301 0.0 0.0 0.01 0.02 0.02 91 1011.0
20191014032544 38 301 0.0 1.0 0.01 0.02 0.02 90 1011.1
20191014032026 38 301 0.0 1.0 0.01 0.02 0.02 90 1011.0
20191014031522 38 301 0.0 1.0 0.01 0.02 0.02 90 1011.0
20191014031017 38 301 0.0 1.0 0.01 0.02 0.02 89 1011.0
20191014030450 38 301 0.0 2.0 0.01 0.02 0.02 89 1011.1
20191014025944 38 301 0.0 2.0 0.00 0.01 0.01 89 1011.1
20191014025445 39 302 0.0 0.0 0.00 0.01 0.01 88 1011.2
20191014024944 39 302 0.0 0.0 0.00 0.01 0.01 87 1011.0
20191014024429 39 302 0.0 0.0 0.00 0.01 0.01 87 1011.2
20191014023918 39 302 1.0 4.0 0.00 0.01 0.01 87 1011.1
20191014023348 39 303 1.0 4.0 0.00 0.01 0.01 85 1011.1
20191014022829 39 304 0.0 4.0 0.00 0.01 0.01 85 1011.1
20191014022257 39 305 0.0 1.0 0.00 0.01 0.01 85 1011.1
20191014021726 39 304 0.0 3.0 0.00 0.01 0.01 84 1011.4
20191014021200 39 305 0.0 3.0 0.00 0.01 0.01 84 1011.2
20191014020701 39 306 0.0 2.0 0.00 0.01 0.01 83 1011.5
20191014020122 40 306 0.0 2.0 0.00 0.01 0.01 82 1011.5
20191014015557 40 306 0.0 0.0 0.00 0.01 0.01 81 1011.4
20191014015022 40 306 0.0 0.0 0.00 0.01 0.01 80 1011.2
20191014014453 40 306 0.0 1.0 0.00 0.01 0.01 80 1011.4
20191014013944 40 306 0.0 5.0 0.00 0.01 0.01 80 1011.5
20191014013441 40 306 1.0 5.0 0.00 0.01 0.01 79 1011.5
20191014012922 40 233 1.0 4.0 0.00 0.01 0.01 79 1011.4
20191014012423 40 232 1.0 4.0 0.00 0.01 0.01 78 1011.4
20191014011910 41 291 1.0 4.0 0.00 0.01 0.01 78 1011.4
20191014011413 41 281 0.0 3.0 0.00 0.01 0.01 78 1011.4
20191014010844 41 287 0.0 2.0 0.00 0.01 0.01 77 1011.4
20191014010305 41 287 0.0 3.0 0.00 0.01 0.01 77 1011.4
20191014005723 41 287 0.0 3.0 0.00 0.01 0.01 76 1011.6
20191014005204 42 287 0.0 4.0 0.00 0.01 0.01 76 1011.5
20191014004701 42 287 0.0 4.0 0.00 0.01 0.01 75 1011.6
20191014004138 42 287 0.0 2.0 0.00 0.01 0.01 74 1011.5
20191014003642 42 287 0.0 4.0 0.00 0.01 0.01 73 1011.4
20191014003129 42 287 1.0 4.0 0.00 0.01 0.01 73 1011.4
20191014002625 42 300 1.0 4.0 0.00 0.01 0.01 74 1011.5
20191014002102 42 288 1.0 4.0 0.00 0.01 0.01 72 1011.4
20191014001604 43 223 1.0 4.0 0.00 0.01 0.01 73 1011.6
20191014001047 43 220 0.0 4.0 0.00 0.01 0.01 73 1011.7
20191014000547 43 218 0.0 2.0 0.00 0.01 0.01 74 1011.8
20191014000044 44 218 0.0 2.0 0.00 0.01 0.01 74 1012.0
20191013235547 44 218 0.0 2.0 0.00 0.01 0.01 72 1012.0
20191013235044 45 218 0.0 2.0 0.00 0.01 0.01 73 1011.9
20191013234536 45 218 0.0 2.0 0.00 0.01 0.01 71 1011.9
20191013234024 46 218 0.0 2.0 0.00 0.01 0.01 70 1012.0
20191013233010 47 218 0.0 0.0 0.00 0.01 0.01 68 1012.4
20191013232507 47 218 0.0 0.0 0.00 0.01 0.01 67 1012.5
20191013231929 47 218 0.0 0.0 0.00 0.01 0.01 68 1012.5
20191013231342 48 218 0.0 2.0 0.00 0.01 0.01 66 1012.5
20191013230813 48 218 0.0 2.0 0.00 0.01 0.01 65 1013.0
20191013230235 49 218 0.0 1.0 0.00 0.01 0.01 64 1013.3
20191013225706 49 218 0.0 2.0 0.00 0.01 0.01 63 1013.3
20191013225130 49 218 0.0 2.0 0.00 0.01 0.01 58 1013.4
20191013224604 49 217 0.0 0.0 0.00 0.01 0.01 61 1013.5
20191013224042 50 217 0.0 1.0 0.00 0.01 0.01 63 1013.6
20191013223506 50 210 0.0 1.0 0.00 0.01 0.01 64 1013.8
20191013222937 50 210 0.0 0.0 0.00 0.01 0.01 58 1013.8
20191013222432 50 210 0.0 0.0 0.00 0.01 0.01 58 1013.8
20191013221923 50 210 0.0 1.0 0.00 0.01 0.01 58 1013.8
20191013221420 50 210 0.0 1.0 0.00 0.01 0.01 56 1013.8
20191013220903 50 210 0.0 0.0 0.00 0.01 0.01 58 1013.7
20191013220340 50 210 0.0 1.0 0.00 0.01 0.01 60 1013.7
20191013215814 50 210 0.0 1.0 0.00 0.01 0.01 58 1013.6
20191013215253 50 210 0.0 5.0 0.00 0.01 0.01 56 1013.8
20191013214735 50 210 0.0 5.0 0.00 0.01 0.01 55 1013.8
20191013214205 50 292 1.0 6.0 0.00 0.01 0.01 57 1013.8
20191013213655 50 295 1.0 6.0 0.00 0.01 0.01 51 1013.9
20191013213137 50 312 2.0 7.0 0.00 0.01 0.01 52 1013.8
20191013212618 50 190 1.0 7.0 0.00 0.01 0.01 51 1013.9
20191013212059 50 300 1.0 5.0 0.00 0.01 0.01 51 1013.8
20191013211539 50 184 1.0 6.0 0.00 0.01 0.01 52 1013.8
20191013211024 50 321 1.0 6.0 0.00 0.01 0.01 52 1013.8
20191013210508 50 251 0.0 6.0 0.00 0.01 0.01 53 1013.9
20191013205948 50 80 0.0 4.0 0.00 0.01 0.01 55 1013.9
20191013205435 49 80 0.0 1.0 0.00 0.01 0.01 54 1013.9
20191013204916 49 80 0.0 1.0 0.00 0.01 0.01 55 1013.9
20191013204350 49 80 0.0 2.0 0.00 0.01 0.01 57 1013.9
20191013203837 49 80 0.0 2.0 0.00 0.01 0.01 55 1013.9
20191013203313 49 80 0.0 0.0 0.00 0.01 0.01 57 1013.8
20191013202755 49 80 0.0 3.0 0.00 0.01 0.01 56 1013.9